Year,Month,Day,Hour,Minute,Value (Times are PST for temperature in C)
2020,04,11,00,00,7.40
2020,04,11,00,01,7.40
2020,04,11,00,02,7.40
2020,04,11,00,03,7.40
2020,04,11,00,04,7.40
2020,04,11,00,05,7.40
2020,04,11,00,06,7.30
2020,04,11,00,07,7.40
2020,04,11,00,08,7.40
2020,04,11,00,09,7.40
2020,04,11,00,10,7.40
2020,04,11,00,11,7.30
2020,04,11,00,12,7.30
2020,04,11,00,13,7.30
2020,04,11,00,14,7.30
2020,04,11,00,15,7.30
2020,04,11,00,16,7.30
2020,04,11,00,17,7.30
2020,04,11,00,18,7.30
2020,04,11,00,19,7.30
2020,04,11,00,20,7.30
2020,04,11,00,21,7.20
2020,04,11,00,22,7.30
2020,04,11,00,23,7.30
2020,04,11,00,24,7.40
2020,04,11,00,25,7.50
2020,04,11,00,26,7.70
2020,04,11,00,27,7.70
2020,04,11,00,28,7.80
2020,04,11,00,29,7.80
2020,04,11,00,30,7.70
2020,04,11,00,31,7.70
2020,04,11,00,32,7.70
2020,04,11,00,33,7.70
2020,04,11,00,34,7.70
2020,04,11,00,35,7.70
2020,04,11,00,36,7.70
2020,04,11,00,37,7.80
2020,04,11,00,38,7.80
2020,04,11,00,39,7.80
2020,04,11,00,40,7.80
2020,04,11,00,41,7.80
2020,04,11,00,42,7.80
2020,04,11,00,43,7.80
2020,04,11,00,44,7.80
2020,04,11,00,45,7.80
2020,04,11,00,46,7.80
2020,04,11,00,47,7.80
2020,04,11,00,48,7.80
2020,04,11,00,49,7.80
2020,04,11,00,50,7.90
2020,04,11,00,51,7.90
2020,04,11,00,52,7.90
2020,04,11,00,53,8.00
2020,04,11,00,54,8.00
2020,04,11,00,55,8.10
2020,04,11,00,56,8.10
2020,04,11,00,57,8.10
2020,04,11,00,58,8.10
2020,04,11,00,59,8.10
2020,04,11,01,00,8.10
2020,04,11,01,01,8.10
2020,04,11,01,02,8.20
2020,04,11,01,03,8.20
2020,04,11,01,04,8.10
2020,04,11,01,05,8.10
2020,04,11,01,06,8.10
2020,04,11,01,07,8.10
2020,04,11,01,08,8.00
2020,04,11,01,09,8.00
2020,04,11,01,10,8.00
2020,04,11,01,11,7.90
2020,04,11,01,12,7.90
2020,04,11,01,13,7.90
2020,04,11,01,14,7.90
2020,04,11,01,15,7.80
2020,04,11,01,16,7.80
2020,04,11,01,17,7.80
2020,04,11,01,18,7.70
2020,04,11,01,19,7.70
2020,04,11,01,20,7.60
2020,04,11,01,21,7.70
2020,04,11,01,22,7.70
2020,04,11,01,23,7.60
2020,04,11,01,24,7.60
2020,04,11,01,25,7.50
2020,04,11,01,26,7.50
2020,04,11,01,27,7.50
2020,04,11,01,28,7.50
2020,04,11,01,29,7.50
2020,04,11,01,30,7.50
2020,04,11,01,31,7.50
2020,04,11,01,32,7.50
2020,04,11,01,33,7.50
2020,04,11,01,34,7.50
2020,04,11,01,35,7.50
2020,04,11,01,36,7.40
2020,04,11,01,37,7.40
2020,04,11,01,38,7.40
2020,04,11,01,39,7.40
2020,04,11,01,40,7.30
2020,04,11,01,41,7.30
2020,04,11,01,42,7.30
2020,04,11,01,43,7.30
2020,04,11,01,44,7.30
2020,04,11,01,45,7.30
2020,04,11,01,46,7.30
2020,04,11,01,47,7.30
2020,04,11,01,48,7.30
2020,04,11,01,49,7.30
2020,04,11,01,50,7.20
2020,04,11,01,51,7.20
2020,04,11,01,52,7.20
2020,04,11,01,53,7.10
2020,04,11,01,54,7.10
2020,04,11,01,55,7.10
2020,04,11,01,56,7.00
2020,04,11,01,57,7.00
2020,04,11,01,58,7.00
2020,04,11,01,59,6.90
2020,04,11,02,00,6.90
2020,04,11,02,01,6.80
2020,04,11,02,02,6.80
2020,04,11,02,03,6.80
2020,04,11,02,04,6.80
2020,04,11,02,05,6.80
2020,04,11,02,06,6.80
2020,04,11,02,07,6.80
2020,04,11,02,08,6.90
2020,04,11,02,09,6.90
2020,04,11,02,10,6.90
2020,04,11,02,11,7.00
2020,04,11,02,12,7.00
2020,04,11,02,13,7.00
2020,04,11,02,14,7.10
2020,04,11,02,15,7.00
2020,04,11,02,16,6.90
2020,04,11,02,17,6.90
2020,04,11,02,18,6.90
2020,04,11,02,19,6.80
2020,04,11,02,20,6.80
2020,04,11,02,21,6.80
2020,04,11,02,22,6.90
2020,04,11,02,23,6.90
2020,04,11,02,24,6.90
2020,04,11,02,25,6.90
2020,04,11,02,26,6.90
2020,04,11,02,27,6.90
2020,04,11,02,28,6.90
2020,04,11,02,29,6.90
2020,04,11,02,30,6.80
2020,04,11,02,31,6.90
2020,04,11,02,32,6.90
2020,04,11,02,33,6.90
2020,04,11,02,34,6.90
2020,04,11,02,35,6.90
2020,04,11,02,36,6.90
2020,04,11,02,37,6.90
2020,04,11,02,38,6.80
2020,04,11,02,39,6.80
2020,04,11,02,40,6.80
2020,04,11,02,41,6.80
2020,04,11,02,42,6.80
2020,04,11,02,43,6.80
2020,04,11,02,44,6.80
2020,04,11,02,45,6.70
2020,04,11,02,46,6.80
2020,04,11,02,47,6.80
2020,04,11,02,48,6.80
2020,04,11,02,49,6.90
2020,04,11,02,50,6.90
2020,04,11,02,51,6.90
2020,04,11,02,52,6.90
2020,04,11,02,53,6.90
2020,04,11,02,54,6.90
2020,04,11,02,55,6.90
2020,04,11,02,56,6.90
2020,04,11,02,57,6.80
2020,04,11,02,58,6.80
2020,04,11,02,59,6.80
2020,04,11,03,00,6.80
2020,04,11,03,01,6.80
2020,04,11,03,02,6.80
2020,04,11,03,03,6.80
2020,04,11,03,04,6.80
2020,04,11,03,05,6.80
2020,04,11,03,06,6.80
2020,04,11,03,07,6.80
2020,04,11,03,08,6.80
2020,04,11,03,09,6.70
2020,04,11,03,10,6.70
2020,04,11,03,11,6.70
2020,04,11,03,12,6.70
2020,04,11,03,13,6.70
2020,04,11,03,14,6.70
2020,04,11,03,15,6.60
2020,04,11,03,16,6.60
2020,04,11,03,17,6.50
2020,04,11,03,18,6.50
2020,04,11,03,19,6.50
2020,04,11,03,20,6.40
2020,04,11,03,21,6.40
2020,04,11,03,22,6.40
2020,04,11,03,23,6.40
2020,04,11,03,24,6.40
2020,04,11,03,25,6.40
2020,04,11,03,26,6.30
2020,04,11,03,27,6.30
2020,04,11,03,28,6.40
2020,04,11,03,29,6.40
2020,04,11,03,30,6.50
2020,04,11,03,31,6.50
2020,04,11,03,32,6.60
2020,04,11,03,33,6.70
2020,04,11,03,34,6.70
2020,04,11,03,35,6.70
2020,04,11,03,36,6.70
2020,04,11,03,37,6.70
2020,04,11,03,38,6.80
2020,04,11,03,39,6.80
2020,04,11,03,40,6.90
2020,04,11,03,41,6.90
2020,04,11,03,42,6.90
2020,04,11,03,43,6.90
2020,04,11,03,44,6.90
2020,04,11,03,45,6.80
2020,04,11,03,46,6.80
2020,04,11,03,47,6.80
2020,04,11,03,48,6.80
2020,04,11,03,49,6.70
2020,04,11,03,50,6.70
2020,04,11,03,51,6.70
2020,04,11,03,52,6.70
2020,04,11,03,53,6.70
2020,04,11,03,54,6.70
2020,04,11,03,55,6.70
2020,04,11,03,56,6.70
2020,04,11,03,57,6.60
2020,04,11,03,58,6.60
2020,04,11,03,59,6.50
2020,04,11,04,00,6.60
2020,04,11,04,01,6.60
2020,04,11,04,02,6.60
2020,04,11,04,03,6.60
2020,04,11,04,04,6.60
2020,04,11,04,05,6.60
2020,04,11,04,06,6.50
2020,04,11,04,07,6.50
2020,04,11,04,08,6.50
2020,04,11,04,09,6.40
2020,04,11,04,10,6.40
2020,04,11,04,11,6.30
2020,04,11,04,12,6.30
2020,04,11,04,13,6.30
2020,04,11,04,14,6.30
2020,04,11,04,15,6.30
2020,04,11,04,16,6.40
2020,04,11,04,17,6.40
2020,04,11,04,18,6.40
2020,04,11,04,19,6.40
2020,04,11,04,20,6.40
2020,04,11,04,21,6.50
2020,04,11,04,22,6.50
2020,04,11,04,23,6.50
2020,04,11,04,24,6.60
2020,04,11,04,25,6.60
2020,04,11,04,26,6.60
2020,04,11,04,27,6.60
2020,04,11,04,28,6.60
2020,04,11,04,29,6.60
2020,04,11,04,30,6.60
2020,04,11,04,31,6.60
2020,04,11,04,32,6.60
2020,04,11,04,33,6.60
2020,04,11,04,34,6.60
2020,04,11,04,35,6.60
2020,04,11,04,36,6.50
2020,04,11,04,37,6.60
2020,04,11,04,38,6.60
2020,04,11,04,39,6.50
2020,04,11,04,40,6.50
2020,04,11,04,41,6.50
2020,04,11,04,42,6.50
2020,04,11,04,43,6.40
2020,04,11,04,44,6.40
2020,04,11,04,45,6.30
2020,04,11,04,46,6.30
2020,04,11,04,47,6.30
2020,04,11,04,48,6.30
2020,04,11,04,49,6.30
2020,04,11,04,50,6.30
2020,04,11,04,51,6.30
2020,04,11,04,52,6.30
2020,04,11,04,53,6.40
2020,04,11,04,54,6.40
2020,04,11,04,55,6.40
2020,04,11,04,56,6.40
2020,04,11,04,57,6.40
2020,04,11,04,58,6.50
2020,04,11,04,59,6.50
2020,04,11,05,00,6.60
2020,04,11,05,01,6.70
2020,04,11,05,02,6.80
2020,04,11,05,03,6.90
2020,04,11,05,04,6.90
2020,04,11,05,05,7.00
2020,04,11,05,06,7.10
2020,04,11,05,07,7.10
2020,04,11,05,08,7.20
2020,04,11,05,09,7.20
2020,04,11,05,10,7.20
2020,04,11,05,11,7.20
2020,04,11,05,12,7.30
2020,04,11,05,13,7.20
2020,04,11,05,14,7.20
2020,04,11,05,15,7.20
2020,04,11,05,16,7.20
2020,04,11,05,17,7.20
2020,04,11,05,18,7.20
2020,04,11,05,19,7.20
2020,04,11,05,20,7.20
2020,04,11,05,21,7.20
2020,04,11,05,22,7.20
2020,04,11,05,23,7.20
2020,04,11,05,24,7.20
2020,04,11,05,25,7.20
2020,04,11,05,26,7.20
2020,04,11,05,27,7.20
2020,04,11,05,28,7.30
2020,04,11,05,29,7.30
2020,04,11,05,30,7.30
2020,04,11,05,31,7.30
2020,04,11,05,32,7.30
2020,04,11,05,33,7.30
2020,04,11,05,34,7.30
2020,04,11,05,35,7.30
2020,04,11,05,36,7.30
2020,04,11,05,37,7.30
2020,04,11,05,38,7.30
2020,04,11,05,39,7.30
2020,04,11,05,40,7.30
2020,04,11,05,41,7.30
2020,04,11,05,42,7.30
2020,04,11,05,43,7.30
2020,04,11,05,44,7.30
2020,04,11,05,45,7.30
2020,04,11,05,46,7.30
2020,04,11,05,47,7.30
2020,04,11,05,48,7.30
2020,04,11,05,49,7.30
2020,04,11,05,50,7.30
2020,04,11,05,51,7.20
2020,04,11,05,52,7.20
2020,04,11,05,53,7.20
2020,04,11,05,54,7.20
2020,04,11,05,55,7.20
2020,04,11,05,56,7.20
2020,04,11,05,57,7.20
2020,04,11,05,58,7.30
2020,04,11,05,59,7.30
2020,04,11,06,00,7.30
2020,04,11,06,01,7.30
2020,04,11,06,02,7.40
2020,04,11,06,03,7.50
2020,04,11,06,04,7.50
2020,04,11,06,05,7.60
2020,04,11,06,06,7.60
2020,04,11,06,07,7.60
2020,04,11,06,08,7.60
2020,04,11,06,09,7.60
2020,04,11,06,10,7.60
2020,04,11,06,11,7.60
2020,04,11,06,12,7.70
2020,04,11,06,13,7.70
2020,04,11,06,14,7.70
2020,04,11,06,15,7.80
2020,04,11,06,16,7.80
2020,04,11,06,17,7.80
2020,04,11,06,18,7.90
2020,04,11,06,19,7.90
2020,04,11,06,20,7.90
2020,04,11,06,21,7.90
2020,04,11,06,22,7.90
2020,04,11,06,23,7.90
2020,04,11,06,24,7.90
2020,04,11,06,25,7.90
2020,04,11,06,26,7.90
2020,04,11,06,27,7.90
2020,04,11,06,28,7.90
2020,04,11,06,29,8.00
2020,04,11,06,30,8.00
2020,04,11,06,31,8.00
2020,04,11,06,32,8.00
2020,04,11,06,33,8.00
2020,04,11,06,34,8.00
2020,04,11,06,35,8.00
2020,04,11,06,36,8.00
2020,04,11,06,37,8.10
2020,04,11,06,38,8.10
2020,04,11,06,39,8.10
2020,04,11,06,40,8.20
2020,04,11,06,41,8.20
2020,04,11,06,42,8.20
2020,04,11,06,43,8.20
2020,04,11,06,44,8.20
2020,04,11,06,45,8.20
2020,04,11,06,46,8.20
2020,04,11,06,47,8.20
2020,04,11,06,48,8.20
2020,04,11,06,49,8.20
2020,04,11,06,50,8.20
2020,04,11,06,51,8.30
2020,04,11,06,52,8.30
2020,04,11,06,53,8.40
2020,04,11,06,54,8.40
2020,04,11,06,55,8.40
2020,04,11,06,56,8.50
2020,04,11,06,57,8.50
2020,04,11,06,58,8.50
2020,04,11,06,59,8.60
2020,04,11,07,00,8.60
2020,04,11,07,01,8.70
2020,04,11,07,02,8.70
2020,04,11,07,03,8.80
2020,04,11,07,04,8.80
2020,04,11,07,05,8.90
2020,04,11,07,06,8.90
2020,04,11,07,07,9.00
2020,04,11,07,08,9.00
2020,04,11,07,09,9.00
2020,04,11,07,10,9.10
2020,04,11,07,11,9.10
2020,04,11,07,12,9.10
2020,04,11,07,13,9.10
2020,04,11,07,14,9.10
2020,04,11,07,15,9.20
2020,04,11,07,16,9.20
2020,04,11,07,17,9.20
2020,04,11,07,18,9.30
2020,04,11,07,19,9.30
2020,04,11,07,20,9.30
2020,04,11,07,21,9.30
2020,04,11,07,22,9.30
2020,04,11,07,23,9.30
2020,04,11,07,24,9.30
2020,04,11,07,25,9.30
2020,04,11,07,26,9.30
2020,04,11,07,27,9.40
2020,04,11,07,28,9.40
2020,04,11,07,29,9.30
2020,04,11,07,30,9.30
2020,04,11,07,31,9.30
2020,04,11,07,32,9.30
2020,04,11,07,33,9.30
2020,04,11,07,34,9.30
2020,04,11,07,35,9.30
2020,04,11,07,36,9.30
2020,04,11,07,37,9.30
2020,04,11,07,38,9.30
2020,04,11,07,39,9.30
2020,04,11,07,40,9.30
2020,04,11,07,41,9.30
2020,04,11,07,42,9.30
2020,04,11,07,43,9.40
2020,04,11,07,44,9.40
2020,04,11,07,45,9.40
2020,04,11,07,46,9.40
2020,04,11,07,47,9.40
2020,04,11,07,48,9.50
2020,04,11,07,49,9.50
2020,04,11,07,50,9.50
2020,04,11,07,51,9.50
2020,04,11,07,52,9.50
2020,04,11,07,53,9.60
2020,04,11,07,54,9.60
2020,04,11,07,55,9.60
2020,04,11,07,56,9.60
2020,04,11,07,57,9.70
2020,04,11,07,58,9.70
2020,04,11,07,59,9.70
2020,04,11,08,00,9.80
2020,04,11,08,01,9.80
2020,04,11,08,02,9.90
2020,04,11,08,03,10.00
2020,04,11,08,04,10.10
2020,04,11,08,05,10.10
2020,04,11,08,06,10.10
2020,04,11,08,07,10.10
2020,04,11,08,08,10.20
2020,04,11,08,09,10.20
2020,04,11,08,10,10.20
2020,04,11,08,11,10.20
2020,04,11,08,12,10.20
2020,04,11,08,13,10.20
2020,04,11,08,14,10.20
2020,04,11,08,15,10.20
2020,04,11,08,16,10.20
2020,04,11,08,17,10.20
2020,04,11,08,18,10.20
2020,04,11,08,19,10.20
2020,04,11,08,20,10.20
2020,04,11,08,21,10.20
2020,04,11,08,22,10.20
2020,04,11,08,23,10.20
2020,04,11,08,24,10.20
2020,04,11,08,25,10.30
2020,04,11,08,26,10.30
2020,04,11,08,27,10.40
2020,04,11,08,28,10.40
2020,04,11,08,29,10.40
2020,04,11,08,30,10.50
2020,04,11,08,31,10.40
2020,04,11,08,32,10.50
2020,04,11,08,33,10.50
2020,04,11,08,34,10.50
2020,04,11,08,35,10.60
2020,04,11,08,36,10.60
2020,04,11,08,37,10.70
2020,04,11,08,38,10.80
2020,04,11,08,39,10.80
2020,04,11,08,40,10.90
2020,04,11,08,41,10.90
2020,04,11,08,42,11.00
2020,04,11,08,43,11.00
2020,04,11,08,44,11.10
2020,04,11,08,45,11.20
2020,04,11,08,46,11.30
2020,04,11,08,47,11.30
2020,04,11,08,48,11.40
2020,04,11,08,49,11.40
2020,04,11,08,50,11.50
2020,04,11,08,51,11.50
2020,04,11,08,52,11.60
2020,04,11,08,53,11.60
2020,04,11,08,54,11.60
2020,04,11,08,55,11.60
2020,04,11,08,56,11.70
2020,04,11,08,57,11.70
2020,04,11,08,58,11.70
2020,04,11,08,59,11.70
2020,04,11,09,00,11.70
2020,04,11,09,01,11.80
2020,04,11,09,02,11.80
2020,04,11,09,03,11.90
2020,04,11,09,04,11.90
2020,04,11,09,05,12.00
2020,04,11,09,06,12.00
2020,04,11,09,07,12.00
2020,04,11,09,08,12.00
2020,04,11,09,09,12.00
2020,04,11,09,10,12.10
2020,04,11,09,11,12.10
2020,04,11,09,12,12.10
2020,04,11,09,13,12.20
2020,04,11,09,14,12.20
2020,04,11,09,15,12.10
2020,04,11,09,16,12.10
2020,04,11,09,17,12.10
2020,04,11,09,18,12.20
2020,04,11,09,19,12.20
2020,04,11,09,20,12.30
2020,04,11,09,21,12.30
2020,04,11,09,22,12.30
2020,04,11,09,23,12.30
2020,04,11,09,24,12.40
2020,04,11,09,25,12.40
2020,04,11,09,26,12.40
2020,04,11,09,27,12.40
2020,04,11,09,28,12.40
2020,04,11,09,29,12.30
2020,04,11,09,30,12.30
2020,04,11,09,31,12.30
2020,04,11,09,32,12.40
2020,04,11,09,33,12.30
2020,04,11,09,34,12.40
2020,04,11,09,35,12.30
2020,04,11,09,36,12.40
2020,04,11,09,37,12.40
2020,04,11,09,38,12.40
2020,04,11,09,39,12.40
2020,04,11,09,40,12.40
2020,04,11,09,41,12.40
2020,04,11,09,42,12.40
2020,04,11,09,43,12.50
2020,04,11,09,44,12.50
2020,04,11,09,45,12.50
2020,04,11,09,46,12.50
2020,04,11,09,47,12.60
2020,04,11,09,48,12.60
2020,04,11,09,49,12.60
2020,04,11,09,50,12.70
2020,04,11,09,51,12.70
2020,04,11,09,52,12.80
2020,04,11,09,53,12.80
2020,04,11,09,54,12.80
2020,04,11,09,55,12.80
2020,04,11,09,56,12.80
2020,04,11,09,57,12.80
2020,04,11,09,58,12.90
2020,04,11,09,59,12.90
2020,04,11,10,00,12.90
2020,04,11,10,01,12.90
2020,04,11,10,02,12.90
2020,04,11,10,03,13.00
2020,04,11,10,04,12.90
2020,04,11,10,05,13.00
2020,04,11,10,06,13.00
2020,04,11,10,07,13.00
2020,04,11,10,08,13.00
2020,04,11,10,09,13.00
2020,04,11,10,10,13.00
2020,04,11,10,11,12.90
2020,04,11,10,12,12.80
2020,04,11,10,13,12.80
2020,04,11,10,14,12.80
2020,04,11,10,15,12.80
2020,04,11,10,16,12.70
2020,04,11,10,17,12.70
2020,04,11,10,18,12.70
2020,04,11,10,19,12.70
2020,04,11,10,20,12.80
2020,04,11,10,21,12.80
2020,04,11,10,22,12.90
2020,04,11,10,23,12.90
2020,04,11,10,24,12.90
2020,04,11,10,25,12.80
2020,04,11,10,26,12.80
2020,04,11,10,27,12.80
2020,04,11,10,28,12.80
2020,04,11,10,29,12.80
2020,04,11,10,30,12.80
2020,04,11,10,31,12.80
2020,04,11,10,32,12.80
2020,04,11,10,33,12.80
2020,04,11,10,34,12.80
2020,04,11,10,35,12.80
2020,04,11,10,36,12.90
2020,04,11,10,37,12.90
2020,04,11,10,38,12.90
2020,04,11,10,39,12.90
2020,04,11,10,40,13.00
2020,04,11,10,41,13.00
2020,04,11,10,42,13.00
2020,04,11,10,43,13.10
2020,04,11,10,44,13.10
2020,04,11,10,45,13.10
2020,04,11,10,46,13.10
2020,04,11,10,47,13.10
2020,04,11,10,48,13.10
2020,04,11,10,49,13.10
2020,04,11,10,50,13.10
2020,04,11,10,51,13.10
2020,04,11,10,52,13.10
2020,04,11,10,53,13.10
2020,04,11,10,54,13.10
2020,04,11,10,55,13.10
2020,04,11,10,56,13.10
2020,04,11,10,57,13.20
2020,04,11,10,58,13.10
2020,04,11,10,59,13.10
2020,04,11,11,00,13.10
2020,04,11,11,01,13.10
2020,04,11,11,02,13.00
2020,04,11,11,03,13.00
2020,04,11,11,04,13.00
2020,04,11,11,05,13.00
2020,04,11,11,06,13.00
2020,04,11,11,07,13.00
2020,04,11,11,08,13.10
2020,04,11,11,09,13.10
2020,04,11,11,10,13.10
2020,04,11,11,11,13.00
2020,04,11,11,12,13.10
2020,04,11,11,13,13.10
2020,04,11,11,14,13.10
2020,04,11,11,15,13.00
2020,04,11,11,16,13.00
2020,04,11,11,17,12.90
2020,04,11,11,18,13.00
2020,04,11,11,19,13.00
2020,04,11,11,20,13.00
2020,04,11,11,21,13.00
2020,04,11,11,22,13.00
2020,04,11,11,23,13.10
2020,04,11,11,24,13.10
2020,04,11,11,25,13.10
2020,04,11,11,26,13.10
2020,04,11,11,27,13.10
2020,04,11,11,28,13.10
2020,04,11,11,29,13.10
2020,04,11,11,30,13.20
2020,04,11,11,31,13.20
2020,04,11,11,32,13.20
2020,04,11,11,33,13.30
2020,04,11,11,34,13.30
2020,04,11,11,35,13.40
2020,04,11,11,36,13.40
2020,04,11,11,37,13.30
2020,04,11,11,38,13.30
2020,04,11,11,39,13.40
2020,04,11,11,40,13.50
2020,04,11,11,41,13.50
2020,04,11,11,42,13.60
2020,04,11,11,43,13.70
2020,04,11,11,44,13.80
2020,04,11,11,45,13.80
2020,04,11,11,46,13.80
2020,04,11,11,47,13.80
2020,04,11,11,48,13.80
2020,04,11,11,49,13.70
2020,04,11,11,50,13.70
2020,04,11,11,51,13.70
2020,04,11,11,52,13.70
2020,04,11,11,53,13.70
2020,04,11,11,54,13.70
2020,04,11,11,55,13.80
2020,04,11,11,56,13.70
2020,04,11,11,57,13.70
2020,04,11,11,58,13.70
2020,04,11,11,59,13.70
2020,04,11,12,00,13.80
2020,04,11,12,01,13.90
2020,04,11,12,02,13.90
2020,04,11,12,03,13.90
2020,04,11,12,04,13.90
2020,04,11,12,05,13.80
2020,04,11,12,06,13.70
2020,04,11,12,07,13.70
2020,04,11,12,08,13.80
2020,04,11,12,09,13.80
2020,04,11,12,10,13.80
2020,04,11,12,11,13.80
2020,04,11,12,12,13.90
2020,04,11,12,13,13.90
2020,04,11,12,14,13.90
2020,04,11,12,15,13.90
2020,04,11,12,16,14.00
2020,04,11,12,17,14.10
2020,04,11,12,18,14.10
2020,04,11,12,19,14.10
2020,04,11,12,20,14.10
2020,04,11,12,21,14.00
2020,04,11,12,22,14.00
2020,04,11,12,23,13.90
2020,04,11,12,24,13.90
2020,04,11,12,25,13.90
2020,04,11,12,26,13.90
2020,04,11,12,27,14.00
2020,04,11,12,28,14.10
2020,04,11,12,29,14.10
2020,04,11,12,30,14.10
2020,04,11,12,31,14.10
2020,04,11,12,32,14.10
2020,04,11,12,33,14.10
2020,04,11,12,34,14.10
2020,04,11,12,35,14.20
2020,04,11,12,36,14.30
2020,04,11,12,37,14.20
2020,04,11,12,38,14.10
2020,04,11,12,39,14.00
2020,04,11,12,40,14.00
2020,04,11,12,41,13.90
2020,04,11,12,42,13.90
2020,04,11,12,43,13.90
2020,04,11,12,44,14.00
2020,04,11,12,45,14.10
2020,04,11,12,46,14.20
2020,04,11,12,47,14.20
2020,04,11,12,48,14.10
2020,04,11,12,49,14.10
2020,04,11,12,50,14.10
2020,04,11,12,51,14.10
2020,04,11,12,52,14.00
2020,04,11,12,53,14.00
2020,04,11,12,54,14.00
2020,04,11,12,55,14.00
2020,04,11,12,56,14.00
2020,04,11,12,57,13.90
2020,04,11,12,58,13.90
2020,04,11,12,59,13.90
2020,04,11,13,00,13.90
2020,04,11,13,01,14.00
2020,04,11,13,02,14.00
2020,04,11,13,03,13.90
2020,04,11,13,04,13.90
2020,04,11,13,05,13.80
2020,04,11,13,06,13.80
2020,04,11,13,07,13.80
2020,04,11,13,08,13.80
2020,04,11,13,09,13.90
2020,04,11,13,10,13.90
2020,04,11,13,11,14.00
2020,04,11,13,12,14.00
2020,04,11,13,13,13.90
2020,04,11,13,14,13.90
2020,04,11,13,15,13.90
2020,04,11,13,16,13.90
2020,04,11,13,17,14.00
2020,04,11,13,18,14.00
2020,04,11,13,19,14.00
2020,04,11,13,20,14.00
2020,04,11,13,21,13.90
2020,04,11,13,22,13.90
2020,04,11,13,23,13.90
2020,04,11,13,24,13.90
2020,04,11,13,25,14.00
2020,04,11,13,26,14.00
2020,04,11,13,27,14.10
2020,04,11,13,28,14.10
2020,04,11,13,29,14.20
2020,04,11,13,30,14.20
2020,04,11,13,31,14.10
2020,04,11,13,32,14.10
2020,04,11,13,33,14.10
2020,04,11,13,34,14.20
2020,04,11,13,35,14.20
2020,04,11,13,36,14.20
2020,04,11,13,37,14.10
2020,04,11,13,38,14.10
2020,04,11,13,39,14.10
2020,04,11,13,40,14.10
2020,04,11,13,41,14.10
2020,04,11,13,42,14.20
2020,04,11,13,43,14.20
2020,04,11,13,44,14.20
2020,04,11,13,45,14.30
2020,04,11,13,46,14.30
2020,04,11,13,47,14.30
2020,04,11,13,48,14.30
2020,04,11,13,49,14.30
2020,04,11,13,50,14.40
2020,04,11,13,51,14.50
2020,04,11,13,52,14.60
2020,04,11,13,53,14.60
2020,04,11,13,54,14.70
2020,04,11,13,55,14.70
2020,04,11,13,56,14.70
2020,04,11,13,57,14.60
2020,04,11,13,58,14.60
2020,04,11,13,59,14.60
2020,04,11,14,00,14.60
2020,04,11,14,01,14.60
2020,04,11,14,02,14.70
2020,04,11,14,03,14.60
2020,04,11,14,04,14.60
2020,04,11,14,05,14.70
2020,04,11,14,06,14.70
2020,04,11,14,07,14.70
2020,04,11,14,08,14.70
2020,04,11,14,09,14.70
2020,04,11,14,10,14.70
2020,04,11,14,11,14.70
2020,04,11,14,12,14.60
2020,04,11,14,13,14.70
2020,04,11,14,14,14.80
2020,04,11,14,15,14.80
2020,04,11,14,16,14.80
2020,04,11,14,17,14.80
2020,04,11,14,18,14.70
2020,04,11,14,19,14.70
2020,04,11,14,20,14.70
2020,04,11,14,21,14.70
2020,04,11,14,22,14.70
2020,04,11,14,23,14.70
2020,04,11,14,24,14.70
2020,04,11,14,25,14.70
2020,04,11,14,26,14.70
2020,04,11,14,27,14.70
2020,04,11,14,28,14.80
2020,04,11,14,29,14.70
2020,04,11,14,30,14.70
2020,04,11,14,31,14.70
2020,04,11,14,32,14.70
2020,04,11,14,33,14.70
2020,04,11,14,34,14.80
2020,04,11,14,35,14.80
2020,04,11,14,36,14.80
2020,04,11,14,37,14.90
2020,04,11,14,38,14.90
2020,04,11,14,39,14.90
2020,04,11,14,40,15.00
2020,04,11,14,41,14.90
2020,04,11,14,42,14.90
2020,04,11,14,43,14.90
2020,04,11,14,44,14.90
2020,04,11,14,45,14.90
2020,04,11,14,46,14.90
2020,04,11,14,47,14.90
2020,04,11,14,48,14.90
2020,04,11,14,49,14.90
2020,04,11,14,50,14.90
2020,04,11,14,51,14.90
2020,04,11,14,52,14.90
2020,04,11,14,53,15.00
2020,04,11,14,54,15.00
2020,04,11,14,55,15.10
2020,04,11,14,56,15.20
2020,04,11,14,57,15.30
2020,04,11,14,58,15.40
2020,04,11,14,59,15.50
2020,04,11,15,00,15.60
2020,04,11,15,01,15.70
2020,04,11,15,02,15.80
2020,04,11,15,03,15.80
2020,04,11,15,04,15.60
2020,04,11,15,05,15.60
2020,04,11,15,06,15.60
2020,04,11,15,07,15.70
2020,04,11,15,08,15.80
2020,04,11,15,09,15.90
2020,04,11,15,10,15.90
2020,04,11,15,11,15.90
2020,04,11,15,12,15.90
2020,04,11,15,13,16.00
2020,04,11,15,14,15.90
2020,04,11,15,15,15.80
2020,04,11,15,16,15.70
2020,04,11,15,17,15.50
2020,04,11,15,18,15.40
2020,04,11,15,19,15.40
2020,04,11,15,20,15.40
2020,04,11,15,21,15.40
2020,04,11,15,22,15.30
2020,04,11,15,23,15.30
2020,04,11,15,24,15.40
2020,04,11,15,25,15.30
2020,04,11,15,26,15.30
2020,04,11,15,27,15.30
2020,04,11,15,28,15.30
2020,04,11,15,29,15.20
2020,04,11,15,30,15.20
2020,04,11,15,31,15.20
2020,04,11,15,32,15.20
2020,04,11,15,33,15.20
2020,04,11,15,34,15.20
2020,04,11,15,35,15.20
2020,04,11,15,36,15.20
2020,04,11,15,37,15.30
2020,04,11,15,38,15.30
2020,04,11,15,39,15.30
2020,04,11,15,40,15.30
2020,04,11,15,41,15.40
2020,04,11,15,42,15.50
2020,04,11,15,43,15.50
2020,04,11,15,44,15.50
2020,04,11,15,45,15.50
2020,04,11,15,46,15.50
2020,04,11,15,47,15.60
2020,04,11,15,48,15.60
2020,04,11,15,49,15.60
2020,04,11,15,50,15.60
2020,04,11,15,51,15.70
2020,04,11,15,52,15.80
2020,04,11,15,53,15.80
2020,04,11,15,54,15.80
2020,04,11,15,55,15.70
2020,04,11,15,56,15.60
2020,04,11,15,57,15.60
2020,04,11,15,58,15.60
2020,04,11,15,59,15.60
2020,04,11,16,00,15.60
2020,04,11,16,01,15.60
2020,04,11,16,02,15.70
2020,04,11,16,03,15.70
2020,04,11,16,04,15.70
2020,04,11,16,05,15.70
2020,04,11,16,06,15.70
2020,04,11,16,07,15.80
2020,04,11,16,08,15.80
2020,04,11,16,09,15.90
2020,04,11,16,10,15.90
2020,04,11,16,11,15.90
2020,04,11,16,12,15.90
2020,04,11,16,13,15.90
2020,04,11,16,14,15.90
2020,04,11,16,15,15.80
2020,04,11,16,16,15.80
2020,04,11,16,17,15.80
2020,04,11,16,18,15.80
2020,04,11,16,19,15.80
2020,04,11,16,20,15.90
2020,04,11,16,21,15.90
2020,04,11,16,22,15.90
2020,04,11,16,23,15.90
2020,04,11,16,24,15.90
2020,04,11,16,25,15.70
2020,04,11,16,26,15.60
2020,04,11,16,27,15.50
2020,04,11,16,28,15.50
2020,04,11,16,29,15.50
2020,04,11,16,30,15.50
2020,04,11,16,31,15.60
2020,04,11,16,32,15.60
2020,04,11,16,33,15.60
2020,04,11,16,34,15.60
2020,04,11,16,35,15.60
2020,04,11,16,36,15.50
2020,04,11,16,37,15.40
2020,04,11,16,38,15.40
2020,04,11,16,39,15.40
2020,04,11,16,40,15.50
2020,04,11,16,41,15.50
2020,04,11,16,42,15.60
2020,04,11,16,43,15.70
2020,04,11,16,44,15.80
2020,04,11,16,45,15.80
2020,04,11,16,46,15.90
2020,04,11,16,47,15.90
2020,04,11,16,48,15.90
2020,04,11,16,49,15.80
2020,04,11,16,50,15.70
2020,04,11,16,51,15.70
2020,04,11,16,52,15.70
2020,04,11,16,53,15.60
2020,04,11,16,54,15.70
2020,04,11,16,55,15.70
2020,04,11,16,56,15.60
2020,04,11,16,57,15.60
2020,04,11,16,58,15.60
2020,04,11,16,59,15.60
2020,04,11,17,00,15.60
2020,04,11,17,01,15.60
2020,04,11,17,02,15.70
2020,04,11,17,03,15.70
2020,04,11,17,04,15.80
2020,04,11,17,05,15.80
2020,04,11,17,06,15.80
2020,04,11,17,07,15.80
2020,04,11,17,08,15.80
2020,04,11,17,09,15.80
2020,04,11,17,10,15.80
2020,04,11,17,11,15.70
2020,04,11,17,12,15.70
2020,04,11,17,13,15.70
2020,04,11,17,14,15.70
2020,04,11,17,15,15.70
2020,04,11,17,16,15.70
2020,04,11,17,17,15.70
2020,04,11,17,18,15.70
2020,04,11,17,19,15.70
2020,04,11,17,20,15.60
2020,04,11,17,21,15.70
2020,04,11,17,22,15.60
2020,04,11,17,23,15.60
2020,04,11,17,24,15.60
2020,04,11,17,25,15.70
2020,04,11,17,26,15.60
2020,04,11,17,27,15.50
2020,04,11,17,28,15.50
2020,04,11,17,29,15.40
2020,04,11,17,30,15.30
2020,04,11,17,31,15.30
2020,04,11,17,32,15.30
2020,04,11,17,33,15.30
2020,04,11,17,34,15.30
2020,04,11,17,35,15.30
2020,04,11,17,36,15.40
2020,04,11,17,37,15.40
2020,04,11,17,38,15.30
2020,04,11,17,39,15.30
2020,04,11,17,40,15.30